FW7308 Weather Reports


time (UTC)temp
C
wind
direction
speed
KPH
gust
KPH
rain 1hr
cm
rain 24hr
cm
rain mn
cm
humidity
%
barometer
mb
20260902065245 15 341 0.0 1.6 0.00 0.00 0.00 99 1023.8
20260902064844 15 0.0 0.0 0.00 0.00 0.00 99 1023.8
20260902064242 15 322 0.0 1.6 0.00 0.00 0.00 99 1023.8
20260902063741 15 0.0 0.0 0.00 0.00 0.00 99 1023.8
20260902062742 15 0.0 0.0 0.00 0.00 0.00 99 1023.8
20260902061740 15 0.0 0.0 0.00 0.00 0.00 99 1023.5
20260902061241 15 0.0 0.0 0.00 0.00 0.00 99 1023.5
20260902060240 15 0.0 0.0 0.00 0.00 0.00 99 1023.5
20260902055739 15 0.0 0.0 0.00 0.00 0.00 99 1023.1
20260902044735 15 0.0 0.0 0.00 0.00 0.00 99 1022.8
20260902044235 15 0.0 0.0 0.00 0.00 0.00 99 1022.8
20260902043734 15 0.0 0.0 0.00 0.00 0.00 99 1022.4
20260902043235 15 333 0.0 1.6 0.00 0.00 0.00 99 1022.4
20260902042735 15 0.0 0.0 0.00 0.00 0.00 99 1022.4
20260902042235 15 312 0.0 1.6 0.00 0.00 0.00 99 1022.4
20260902041733 15 0.0 0.0 0.00 0.00 0.00 99 1022.4
20260902041232 15 0.0 0.0 0.00 0.00 0.00 99 1022.1
20260902040733 15 0.0 0.0 0.00 0.00 0.00 99 1022.1
20260902040232 15 0.0 0.0 0.00 0.00 0.00 99 1022.4
20260902035733 15 0.0 0.0 0.00 0.00 1.24 99 1022.2
20260902035232 15 0.0 0.0 0.00 0.00 1.24 99 1022.4
20260902034731 15 0.0 0.0 0.00 0.00 1.24 99 1022.2
20260902034231 15 0.0 0.0 0.00 0.00 1.24 99 1022.2
20260902033731 15 0.0 0.0 0.00 0.00 1.24 99 1022.1
20260902032730 15 0.0 0.0 0.00 0.00 1.24 99 1022.2
20260902032230 15 0.0 0.0 0.00 0.00 1.24 99 1022.4
20260902031730 15 0.0 0.0 0.00 0.00 1.24 99 1022.4
20260902031228 15 0.0 0.0 0.00 0.00 1.24 99 1022.4
20260902030728 15 0.0 0.0 0.00 0.00 1.24 99 1022.1
20260902030329 15 321 0.0 1.6 0.00 0.00 1.24 99 1022.4
20260902025731 15 0.0 0.0 0.00 0.00 1.24 99 1022.4
20260902025226 15 336 0.0 1.6 0.00 0.00 1.24 99 1022.4
20260902024726 15 336 0.0 1.6 0.00 0.00 1.24 99 1022.4
20260902024330 15 336 0.0 1.6 0.00 0.00 1.24 99 1022.2
20260902023727 15 343 1.6 3.2 0.00 0.00 1.24 99 1022.1
20260902023327 15 343 1.6 3.2 0.00 0.00 1.24 99 1021.7
20260902022726 15 1 3.2 4.8 0.00 0.00 1.24 99 1021.9
20260902022227 15 345 1.6 3.2 0.00 0.00 1.24 99 1022.1
20260902021725 15 7 4.8 8.0 0.00 0.00 1.24 99 1022.1
20260902021226 15 350 1.6 3.2 0.00 0.00 1.24 99 1022.1
20260902020723 15 78 4.8 8.0 0.00 0.00 1.24 99 1022.1
20260902020225 15 146 6.4 8.0 0.00 0.00 1.24 99 1021.7
20260902015723 15 136 6.4 9.7 0.00 0.00 1.24 99 1022.1
20260902015323 15 349 3.2 3.2 0.00 0.00 1.24 99 1022.1
20260902014827 15 287 4.8 8.0 0.00 0.00 1.24 99 1022.1
20260902014223 15 349 1.6 3.2 0.00 0.00 1.24 99 1022.1
20260902013723 15 66 3.2 8.0 0.00 0.00 1.24 99 1022.2
20260902013221 15 235 4.8 8.0 0.00 0.00 1.24 99 1022.2
20260902012722 15 12 4.8 4.8 0.00 0.00 1.24 99 1022.1
20260902012222 15 357 3.2 3.2 0.00 0.00 1.24 99 1022.1
20260902011721 15 30 3.2 4.8 0.00 0.00 1.24 99 1022.1
20260902011220 16 27 4.8 8.0 0.00 0.00 1.24 99 1022.1
20260902010721 16 2 3.2 4.8 0.00 0.00 1.24 99 1022.1
20260902010220 16 328 1.6 3.2 0.00 0.00 1.24 99 1022.1
20260902005719 16 29 3.2 4.8 0.00 0.00 1.24 99 1021.7
20260902005218 16 303 4.8 4.8 0.00 0.00 1.22 99 1021.7
20260902004720 16 343 1.6 1.6 0.00 0.00 1.22 99 1022.1
20260902004320 16 325 3.2 3.2 0.00 0.00 1.22 99 1021.7
20260902003818 16 311 3.2 3.2 0.00 0.00 1.22 99 1021.7
20260902003217 16 237 6.4 8.0 0.00 0.00 1.22 99 1021.5
20260902002716 16 347 3.2 3.2 0.00 0.00 1.22 99 1021.4
20260902002220 16 306 1.6 3.2 0.00 0.00 1.22 99 1021.4
20260902001757 16 350 1.6 3.2 0.00 0.00 1.19 99 1021.2
20260901231243 16 0.0 0.0 0.00 0.00 1.19 99 1021.0
20260901230742 16 0.0 0.0 0.00 0.00 1.19 99 1021.0
20260901230242 16 313 1.6 3.2 0.00 0.00 1.19 99 1021.0
20260901225841 16 319 0.0 1.6 0.00 0.00 1.19 99 1021.0
20260901225241 16 325 1.6 1.6 0.00 0.00 1.19 99 1021.0
20260901224741 16 320 0.0 1.6 0.00 0.00 1.19 99 1021.0
20260901223239 16 329 1.6 1.6 0.00 0.00 1.19 99 1021.0
20260901222240 16 301 3.2 3.2 0.00 0.00 1.19 99 1021.2
20260901221739 16 317 1.6 3.2 0.00 0.00 1.19 99 1021.0
20260901221238 16 309 1.6 3.2 0.00 0.00 1.19 99 1021.0
20260901220240 16 0.0 0.0 0.00 0.00 1.19 99 1020.7
20260901215738 16 294 3.2 3.2 0.00 0.00 1.19 99 1020.7
20260901215237 16 327 1.6 1.6 0.00 0.00 1.17 99 1020.7
20260901214736 16 304 3.2 3.2 0.00 0.00 1.17 99 1020.7
20260901214237 16 338 1.6 1.6 0.00 0.00 1.17 99 1020.7
20260901213736 16 310 1.6 3.2 0.00 0.00 1.17 99 1020.7
20260901213235 16 332 0.0 1.6 0.00 0.00 1.17 99 1020.7
20260901212735 16 324 0.0 1.6 0.00 0.00 1.17 99 1020.7
20260901212236 16 314 1.6 3.2 0.00 0.00 1.17 99 1020.7
20260901211735 16 323 1.6 1.6 0.00 0.00 1.17 99 1020.7
20260901211234 16 305 1.6 3.2 0.00 0.00 1.17 99 1020.7
20260901210733 16 0.0 0.0 0.00 0.00 1.17 99 1020.3
20260901210233 16 341 1.6 3.2 0.00 0.00 1.17 99 1020.7
20260901205734 16 314 1.6 1.6 0.00 0.00 1.17 99 1020.7
20260901205233 16 324 1.6 1.6 0.00 0.00 1.17 99 1020.7
20260901204732 16 336 0.0 1.6 0.00 0.00 1.17 99 1020.7
20260901204232 16 304 3.2 4.8 0.00 0.00 1.17 99 1020.7
20260901203733 16 325 1.6 3.2 0.00 0.00 1.17 99 1020.7
20260901203234 16 333 1.6 1.6 0.00 0.00 1.17 99 1020.7
20260901202831 16 0.0 0.0 0.00 0.00 1.17 99 1020.3
20260901202230 16 318 1.6 3.2 0.00 0.00 1.17 99 1020.3
20260901201731 16 0.0 0.0 0.00 0.00 1.17 99 1020.3
20260901201230 16 335 1.6 1.6 0.00 0.00 1.17 99 1020.3
20260901200732 16 0.0 0.0 0.00 0.00 1.17 99 1020.3
20260901200231 16 343 3.2 4.8 0.00 0.00 1.17 99 1020.0
20260901195731 16 331 4.8 8.0 0.00 0.00 1.17 99 1020.3
20260901195229 16 313 0.0 1.6 0.00 0.00 1.17 99 1020.3
20260901194732 16 325 0.0 1.6 0.00 0.00 1.17 99 1020.3
20260901194230 16 321 1.6 3.2 0.00 0.00 1.17 99 1020.3
20260901193729 16 336 3.2 3.2 0.00 0.00 1.17 99 1020.3
20260901193228 16 284 4.8 4.8 0.00 0.00 1.17 99 1020.3
20260901192730 16 332 1.6 3.2 0.00 0.00 1.17 99 1020.3
20260901192228 16 307 1.6 3.2 0.00 0.00 1.17 99 1020.3
20260901191728 16 356 1.6 1.6 0.00 0.00 1.17 99 1020.3
20260901191227 16 323 1.6 3.2 0.00 0.00 1.17 99 1020.5
20260901190225 16 0.0 0.0 0.00 0.00 1.17 99 1020.7
20260901185226 16 303 1.6 1.6 0.00 0.00 1.17 99 1020.7
20260901184724 16 8 3.2 4.8 0.00 0.00 1.17 99 1020.3
20260901184224 16 354 3.2 3.2 0.00 0.00 1.17 99 1020.5
20260901183725 16 321 4.8 4.8 0.00 0.00 1.17 99 1020.5
20260901183225 16 337 1.6 3.2 0.00 0.00 1.17 99 1020.3
20260901182724 16 0.0 0.0 0.00 0.00 1.17 99 1020.5
20260901182224 16 329 1.6 3.2 0.00 0.00 1.17 99 1020.3
20260901181722 16 313 1.6 3.2 0.00 0.00 1.17 99 1020.3
20260901181223 16 330 0.0 1.6 0.00 0.00 1.17 99 1020.3
20260901180722 16 0.0 0.0 0.00 0.00 1.14 99 1020.3
20260901180222 16 322 1.6 3.2 0.00 0.00 1.14 99 1020.3
20260901175720 16 328 0.0 1.6 0.00 0.00 1.14 99 1020.3
20260901175220 16 307 3.2 3.2 0.00 0.00 1.14 99 1020.3
20260901174721 16 322 1.6 3.2 0.00 0.00 1.14 99 1020.3
20260901174220 16 326 1.6 1.6 0.00 0.00 1.12 99 1020.3
20260901173721 15 0.0 0.0 0.00 0.00 1.12 99 1020.3
20260901173218 16 326 0.0 1.6 0.00 0.00 1.12 99 1020.3
20260901172720 15 325 1.6 3.2 0.00 0.00 1.09 99 1020.3
20260901172219 15 321 1.6 1.6 0.00 0.00 1.09 99 1020.3
20260901171718 15 322 3.2 3.2 0.00 0.00 1.07 99 1020.3
20260901171219 15 333 0.0 1.6 0.00 0.00 1.04 99 1020.3
20260901170718 15 318 3.2 4.8 0.00 0.00 1.04 99 1020.3
20260901170218 15 323 4.8 8.0 0.00 0.00 1.04 99 1020.3
20260901155717 15 292 1.6 3.2 0.00 0.00 0.99 99 1019.8
20260901155246 15 0.0 0.0 0.00 0.00 0.97 99 1020.0
20260901154745 15 0.0 0.0 0.00 0.00 0.94 99 1020.0
20260901154247 15 324 1.6 3.2 0.00 0.00 0.91 99 1020.3
20260901153746 15 332 3.2 3.2 0.00 0.00 0.89 99 1020.3
20260901153245 15 0.0 0.0 0.00 0.00 0.89 99 1020.0
20260901152845 15 330 1.6 3.2 0.00 0.00 0.86 99 1020.3
20260901152243 15 322 1.6 3.2 0.00 0.00 0.84 99 1020.3
20260901151745 15 323 1.6 3.2 0.00 0.00 0.84 99 1020.3
20260901151243 15 334 1.6 1.6 0.00 0.00 0.81 99 1020.3
20260901150747 15 328 1.6 3.2 0.00 0.00 0.79 99 1020.3
20260901150242 15 321 3.2 4.8 0.00 0.00 0.76 99 1020.3
20260901145743 15 312 3.2 3.2 0.00 0.00 0.76 99 1020.0
20260901145242 15 0.0 0.0 0.00 0.00 0.76 99 1020.0
20260901144741 15 324 0.0 1.6 0.00 0.00 0.76 99 1020.0
20260901144341 15 322 1.6 3.2 0.00 0.00 0.76 99 1020.0
20260901143743 15 329 0.0 1.6 0.00 0.00 0.76 99 1020.0
20260901143241 15 318 1.6 1.6 0.00 0.00 0.76 99 1020.0
20260901142742 15 323 1.6 1.6 0.00 0.00 0.76 99 1020.0
20260901141740 15 323 0.0 1.6 0.00 0.00 0.76 99 1020.0
20260901141241 15 325 1.6 3.2 0.00 0.00 0.76 99 1020.0
20260901140739 15 0.0 0.0 0.00 0.00 0.76 99 1020.0
20260901140240 15 323 1.6 3.2 0.00 0.00 0.76 99 1020.1
20260901135740 15 331 3.2 3.2 0.00 0.00 0.76 99 1020.3
20260901135238 15 323 1.6 3.2 0.00 0.00 0.76 99 1020.3
20260901134738 15 321 1.6 3.2 0.00 0.00 0.76 99 1020.3
20260901134237 15 321 1.6 3.2 0.00 0.00 0.76 99 1020.3
20260901133738 15 322 1.6 1.6 0.00 0.00 0.76 99 1020.3
20260901133238 15 326 1.6 1.6 0.00 0.00 0.76 99 1020.3
20260901132738 15 324 1.6 1.6 0.00 0.00 0.76 99 1020.3
20260901132235 15 316 1.6 3.2 0.00 0.00 0.76 99 1020.3
20260901131735 15 321 1.6 1.6 0.00 0.00 0.76 99 1020.3
20260901131236 15 338 1.6 1.6 0.00 0.00 0.76 99 1020.3
20260901130837 15 304 1.6 3.2 0.00 0.00 0.76 99 1020.3
20260901130236 15 323 3.2 8.0 0.00 0.00 0.76 99 1020.7
20260901125739 15 327 1.6 1.6 0.00 0.00 0.76 99 1020.5
20260901125235 16 328 0.0 1.6 0.00 0.00 0.76 99 1020.3
20260901124839 16 327 1.6 1.6 0.00 0.00 0.76 99 1020.7
20260901124233 15 0.0 0.0 0.00 0.00 0.76 99 1020.5
20260901123732 15 327 0.0 1.6 0.00 0.00 0.76 99 1020.7
20260901123237 15 0.0 0.0 0.00 0.00 0.76 99 1020.7
20260901122737 15 321 1.6 1.6 0.00 0.00 0.76 99 1020.7
20260901121739 15 331 0.0 1.6 0.00 0.00 0.74 99 1020.7
20260901121238 15 0.0 0.0 0.00 0.00 0.74 99 1020.7
20260901120731 15 0.0 0.0 0.00 0.00 0.74 99 1020.7
20260901120231 15 323 0.0 1.6 0.00 0.00 0.74 99 1020.7
20260901115731 15 322 1.6 1.6 0.00 0.00 0.71 99 1020.7
20260901115331 15 333 0.0 3.2 0.00 0.00 0.69 99 1020.7
20260901114229 15 326 0.0 1.6 0.00 0.00 0.58 99 1020.7
20260901113728 15 0.0 0.0 0.00 0.00 0.51 99 1020.7
20260901113230 15 0.0 0.0 0.00 0.00 0.46 99 1020.7
20260901112731 15 323 1.6 1.6 0.00 0.00 0.41 99 1020.7
20260901112328 15 320 3.2 3.2 0.00 0.00 0.36 99 1020.7
20260901111728 15 322 1.6 3.2 0.00 0.00 0.33 99 1020.7
20260901111229 16 325 1.6 1.6 0.00 0.00 0.25 99 1020.7
20260901110728 16 321 1.6 3.2 0.00 0.00 0.20 99 1020.7
20260901110228 16 327 3.2 3.2 0.00 0.00 0.13 99 1020.7
20260901105727 16 323 1.6 1.6 0.00 0.00 0.08 99 1020.5
20260901105226 16 320 1.6 1.6 0.00 0.00 0.03 99 1020.3
20260901104226 16 324 3.2 3.2 0.00 0.00 0.00 99 1020.5
20260901103727 16 329 0.0 1.6 0.00 0.00 0.00 99 1020.3
20260901103226 16 317 4.8 8.0 0.00 0.00 0.00 99 1020.3
20260901102726 16 0.0 0.0 0.00 0.00 0.00 99 1020.0
20260901102223 16 0.0 0.0 0.00 0.00 0.00 99 1020.0
20260901101724 16 326 3.2 3.2 0.00 0.00 0.00 99 1020.3
20260901101224 16 0.0 0.0 0.00 0.00 0.00 99 1020.0
20260901100723 16 335 1.6 1.6 0.00 0.00 0.00 99 1019.8
20260901100224 16 319 0.0 1.6 0.00 0.00 0.00 99 1019.6
20260901095723 16 332 0.0 1.6 0.00 0.00 0.00 99 1020.0
20260901095222 16 0.0 0.0 0.00 0.00 0.00 99 1019.6
20260901094722 16 0.0 0.0 0.00 0.00 0.00 99 1019.6
20260901094221 16 328 0.0 1.6 0.00 0.00 0.00 99 1019.6
20260901093722 16 322 3.2 3.2 0.00 0.00 0.00 99 1019.6
20260901093221 16 312 3.2 3.2 0.00 0.00 0.00 99 1019.8
20260901092720 17 334 1.6 1.6 0.00 0.00 0.00 99 1019.6
20260901092220 17 0.0 0.0 0.00 0.00 0.00 99 1019.6
20260901091721 17 0.0 0.0 0.00 0.00 0.00 99 1019.8
20260901091220 17 0.0 0.0 0.00 0.00 0.00 99 1020.0
20260901090719 17 0.0 0.0 0.00 0.00 0.00 99 1020.0
20260901090218 17 0.0 0.0 0.00 0.00 0.00 99 1020.0
20260901085719 17 0.0 0.0 0.00 0.00 0.00 99 1020.0
20260901085219 17 0.0 0.0 0.00 0.00 0.00 99 1020.0
20260901084219 17 0.0 0.0 0.00 0.00 0.00 99 1020.0
20260901083718 17 0.0 0.0 0.00 0.00 0.00 99 1020.0
20260901083218 17 0.0 0.0 0.00 0.00 0.00 99 1020.0
20260901082717 17 0.0 0.0 0.00 0.00 0.00 99 1020.1
20260901082318 17 0.0 0.0 0.00 0.00 0.00 99 1020.0
20260901081718 17 0.0 0.0 0.00 0.00 0.00 99 1020.0
20260901081319 17 0.0 0.0 0.00 0.00 0.00 99 1020.0
20260901080746 17 0.0 0.0 0.00 0.00 0.00 99 1020.0
20260901080244 17 318 1.6 1.6 0.00 0.00 0.00 99 1020.0
20260901075745 17 0.0 0.0 0.00 0.00 0.00 99 1019.8
20260901075245 17 334 1.6 1.6 0.00 0.00 0.00 99 1020.0
20260901074744 17 333 0.0 1.6 0.00 0.00 0.00 99 1019.6
20260901074243 17 0.0 0.0 0.00 0.00 0.00 99 1020.0
20260901073744 17 331 1.6 1.6 0.00 0.00 0.00 99 1020.0
20260901073243 17 331 0.0 1.6 0.00 0.00 0.00 99 1020.0
20260901072743 17 0.0 0.0 0.00 0.00 0.00 99 1020.0
20260901071741 17 324 0.0 1.6 0.00 0.00 0.00 99 1020.0
20260901071244 17 331 1.6 1.6 0.00 0.00 0.00 99 1020.0
20260901070842 17 350 1.6 3.2 0.00 0.00 0.00 99 1020.0
20260901070341 17 334 1.6 1.6 0.00 0.00 0.00 99 1020.3
20260901065840 17 343 0.0 1.6 0.00 0.00 0.00 99 1020.7